Time,TemperatureF,DewpointF,PressureIn,WindDirection,WindDirectionDegrees,WindSpeedMPH,WindSpeedGustMPH,Humidity,HourlyPrecipIn,Conditions,Clouds,dailyrainin,SoftwareType,DateUTC
2013-05-06 00:02:00,51.9,43.0,29.81,ESE,103,0.0,0.0,73,0.00,,,0.00,weatherlink.com 1.10,2013-05-06 07:02:00,
2013-05-06 00:17:00,51.1,43.0,29.81,ESE,102,0.0,0.0,74,0.00,,,0.00,weatherlink.com 1.10,2013-05-06 07:17:00,
2013-05-06 00:32:00,50.5,43.0,29.81,ESE,102,0.0,0.0,76,0.00,,,0.00,weatherlink.com 1.10,2013-05-06 07:32:00,
2013-05-06 00:47:00,49.4,43.0,29.81,ESE,102,0.0,0.0,79,0.00,,,0.00,weatherlink.com 1.10,2013-05-06 07:47:00,
2013-05-06 01:02:00,48.7,43.0,29.82,ESE,103,0.0,0.0,81,0.00,,,0.00,weatherlink.com 1.10,2013-05-06 08:02:00,
2013-05-06 01:17:00,48.1,43.0,29.81,ESE,103,0.0,0.0,83,0.00,,,0.00,weatherlink.com 1.10,2013-05-06 08:17:00,
2013-05-06 01:32:00,47.1,43.0,29.82,SW,229,0.0,0.0,84,0.00,,,0.00,weatherlink.com 1.10,2013-05-06 08:32:00,
2013-05-06 01:47:00,46.9,43.0,29.82,SW,229,0.0,0.0,86,0.00,,,0.00,weatherlink.com 1.10,2013-05-06 08:47:00,
2013-05-06 02:02:00,46.7,43.0,29.82,SW,229,0.0,0.0,87,0.00,,,0.00,weatherlink.com 1.10,2013-05-06 09:02:00,
2013-05-06 02:17:00,46.2,43.0,29.82,SW,229,0.0,0.0,87,0.00,,,0.00,weatherlink.com 1.10,2013-05-06 09:17:00,
2013-05-06 02:32:00,45.6,42.0,29.82,SW,229,0.0,0.0,88,0.00,,,0.00,weatherlink.com 1.10,2013-05-06 09:32:00,
2013-05-06 02:47:00,44.9,42.0,29.82,SW,229,0.0,0.0,90,0.00,,,0.00,weatherlink.com 1.10,2013-05-06 09:47:00,
2013-05-06 03:02:00,44.5,42.0,29.82,SW,229,0.0,0.0,91,0.00,,,0.00,weatherlink.com 1.10,2013-05-06 10:02:00,
2013-05-06 03:17:00,44.1,42.0,29.82,SW,229,0.0,0.0,92,0.00,,,0.00,weatherlink.com 1.10,2013-05-06 10:17:00,
2013-05-06 03:33:00,43.7,42.0,29.82,SW,229,0.0,0.0,92,0.00,,,0.00,weatherlink.com 1.10,2013-05-06 10:33:00,
2013-05-06 03:48:00,43.1,41.0,29.82,SW,229,0.0,0.0,93,0.00,,,0.00,weatherlink.com 1.10,2013-05-06 10:48:00,
2013-05-06 04:03:00,42.8,41.0,29.82,SW,229,0.0,0.0,93,0.00,,,0.00,weatherlink.com 1.10,2013-05-06 11:03:00,
2013-05-06 04:18:00,42.6,41.0,29.82,SW,229,0.0,0.0,94,0.00,,,0.00,weatherlink.com 1.10,2013-05-06 11:18:00,
2013-05-06 04:33:00,42.5,41.0,29.82,SW,229,0.0,0.0,94,0.00,,,0.00,weatherlink.com 1.10,2013-05-06 11:33:00,
2013-05-06 04:48:00,42.3,41.0,29.82,SW,229,0.0,0.0,95,0.00,,,0.00,weatherlink.com 1.10,2013-05-06 11:48:00,
2013-05-06 05:03:00,42.1,41.0,29.83,SW,229,0.0,0.0,95,0.00,,,0.00,weatherlink.com 1.10,2013-05-06 12:03:00,
2013-05-06 05:18:00,41.8,41.0,29.83,SW,229,0.0,0.0,95,0.00,,,0.00,weatherlink.com 1.10,2013-05-06 12:18:00,
2013-05-06 05:33:00,41.7,40.0,29.83,SW,229,0.0,0.0,95,0.00,,,0.00,weatherlink.com 1.10,2013-05-06 12:33:00,
2013-05-06 05:48:00,41.3,40.0,29.84,SW,229,0.0,0.0,95,0.00,,,0.00,weatherlink.com 1.10,2013-05-06 12:48:00,
2013-05-06 06:03:00,41.3,40.0,29.84,SW,229,0.0,0.0,96,0.00,,,0.00,weatherlink.com 1.10,2013-05-06 13:03:00,
2013-05-06 06:18:00,41.3,40.0,29.84,SW,229,0.0,0.0,96,0.00,,,0.00,weatherlink.com 1.10,2013-05-06 13:18:00,
2013-05-06 06:33:00,41.5,41.0,29.84,SW,229,0.0,0.0,96,0.00,,,0.00,weatherlink.com 1.10,2013-05-06 13:33:00,
2013-05-06 06:48:00,41.9,41.0,29.85,SW,229,0.0,0.0,96,0.00,,,0.00,weatherlink.com 1.10,2013-05-06 13:48:00,
2013-05-06 07:03:00,42.3,41.0,29.84,SW,229,0.0,0.0,96,0.00,,,0.00,weatherlink.com 1.10,2013-05-06 14:03:00,
2013-05-06 07:18:00,43.7,43.0,29.85,SW,229,0.0,0.0,97,0.00,,,0.00,weatherlink.com 1.10,2013-05-06 14:18:00,
2013-05-06 07:33:00,45.3,44.0,29.85,SW,229,0.0,0.0,95,0.00,,,0.00,weatherlink.com 1.10,2013-05-06 14:33:00,
2013-05-06 07:48:00,47.6,46.0,29.85,SW,229,0.0,0.0,93,0.00,,,0.00,weatherlink.com 1.10,2013-05-06 14:48:00,
2013-05-06 08:03:00,50.0,46.0,29.85,SW,229,0.0,0.0,87,0.00,,,0.00,weatherlink.com 1.10,2013-05-06 15:03:00,
2013-05-06 08:18:00,52.3,45.0,29.86,SSW,212,0.0,0.0,77,0.00,,,0.00,weatherlink.com 1.10,2013-05-06 15:18:00,
2013-05-06 08:33:00,55.3,46.0,29.86,SW,231,0.0,2.0,70,0.00,,,0.00,weatherlink.com 1.10,2013-05-06 15:33:00,
2013-05-06 08:48:00,57.4,44.0,29.86,WSW,240,0.0,0.0,62,0.00,,,0.00,weatherlink.com 1.10,2013-05-06 15:48:00,
2013-05-06 09:03:00,59.0,46.0,29.86,WSW,238,0.0,0.0,62,0.00,,,0.00,weatherlink.com 1.10,2013-05-06 16:03:00,
2013-05-06 09:18:00,61.1,45.0,29.86,SW,226,1.0,1.0,55,0.00,,,0.00,weatherlink.com 1.10,2013-05-06 16:18:00,
2013-05-06 09:33:00,62.4,45.0,29.86,North,7,0.0,0.0,54,0.00,,,0.00,weatherlink.com 1.10,2013-05-06 16:33:00,
2013-05-06 09:48:00,63.5,45.0,29.86,WSW,244,0.0,0.0,51,0.00,,,0.00,weatherlink.com 1.10,2013-05-06 16:48:00,
2013-05-06 10:03:00,64.3,45.0,29.86,SW,220,0.0,0.0,50,0.00,,,0.00,weatherlink.com 1.10,2013-05-06 17:03:00,
2013-05-06 10:19:00,65.8,46.0,29.86,NW,316,0.0,0.0,49,0.00,,,0.00,weatherlink.com 1.10,2013-05-06 17:19:00,
2013-05-06 10:34:00,67.2,46.0,29.86,SW,217,0.0,0.0,46,0.00,,,0.00,weatherlink.com 1.10,2013-05-06 17:34:00,
2013-05-06 10:49:00,69.0,48.0,29.86,SW,223,0.0,1.0,47,0.00,,,0.00,weatherlink.com 1.10,2013-05-06 17:49:00,
2013-05-06 11:04:00,70.7,46.0,29.86,WSW,252,0.0,0.0,42,0.00,,,0.00,weatherlink.com 1.10,2013-05-06 18:04:00,
2013-05-06 11:19:00,72.7,48.0,29.85,West,262,0.0,2.0,41,0.00,,,0.00,weatherlink.com 1.10,2013-05-06 18:19:00,
2013-05-06 11:34:00,73.9,47.0,29.85,NE,34,0.0,3.0,39,0.00,,,0.00,weatherlink.com 1.10,2013-05-06 18:34:00,
2013-05-06 11:49:00,75.2,46.0,29.84,NE,37,0.0,0.0,36,0.00,,,0.00,weatherlink.com 1.10,2013-05-06 18:49:00,
2013-05-06 12:04:00,78.1,47.0,29.84,SW,231,0.0,0.0,33,0.00,,,0.00,weatherlink.com 1.10,2013-05-06 19:04:00,
2013-05-06 12:19:00,77.7,48.0,29.83,WNW,295,1.0,5.0,35,0.00,,,0.00,weatherlink.com 1.10,2013-05-06 19:19:00,
2013-05-06 12:34:00,78.4,46.0,29.83,SSW,208,0.0,6.0,32,0.00,,,0.00,weatherlink.com 1.10,2013-05-06 19:34:00,
2013-05-06 12:49:00,79.4,47.0,29.83,NNW,343,0.0,4.0,32,0.00,,,0.00,weatherlink.com 1.10,2013-05-06 19:49:00,
2013-05-06 13:04:00,80.0,43.0,29.82,ENE,70,0.0,6.0,27,0.00,,,0.00,weatherlink.com 1.10,2013-05-06 20:04:00,
2013-05-06 13:19:00,81.2,44.0,29.82,ESE,118,0.0,8.0,27,0.00,,,0.00,weatherlink.com 1.10,2013-05-06 20:19:00,
2013-05-06 13:34:00,81.7,43.0,29.82,NNE,22,0.0,7.0,25,0.00,,,0.00,weatherlink.com 1.10,2013-05-06 20:34:00,
2013-05-06 13:49:00,82.3,44.0,29.81,WNW,293,1.0,6.0,26,0.00,,,0.00,weatherlink.com 1.10,2013-05-06 20:49:00,
2013-05-06 14:04:00,83.1,47.0,29.81,WNW,288,0.0,4.0,28,0.00,,,0.00,weatherlink.com 1.10,2013-05-06 21:04:00,
2013-05-06 14:19:00,83.7,47.0,29.81,WSW,243,1.0,8.0,28,0.00,,,0.00,weatherlink.com 1.10,2013-05-06 21:19:00,
2013-05-06 14:34:00,83.9,48.0,29.81,NW,319,2.0,7.0,29,0.00,,,0.00,weatherlink.com 1.10,2013-05-06 21:34:00,
2013-05-06 14:49:00,83.3,47.0,29.80,WNW,284,5.0,8.0,28,0.00,,,0.00,weatherlink.com 1.10,2013-05-06 21:49:00,
2013-05-06 15:04:00,83.7,48.0,29.80,WSW,243,4.0,12.0,29,0.00,,,0.00,weatherlink.com 1.10,2013-05-06 22:04:00,
2013-05-06 15:19:00,84.6,46.0,29.79,East,82,0.0,8.0,26,0.00,,,0.00,weatherlink.com 1.10,2013-05-06 22:19:00,
2013-05-06 15:35:00,84.8,47.0,29.79,NE,53,2.0,8.0,27,0.00,,,0.00,weatherlink.com 1.10,2013-05-06 22:35:00,
2013-05-06 15:50:00,84.8,46.0,29.78,NNW,335,4.0,9.0,26,0.00,,,0.00,weatherlink.com 1.10,2013-05-06 22:50:00,
2013-05-06 16:05:00,85.1,47.0,29.78,SW,231,1.0,8.0,26,0.00,,,0.00,weatherlink.com 1.10,2013-05-06 23:05:00,
2013-05-06 16:20:00,84.7,48.0,29.77,WNW,283,8.0,8.0,28,0.00,,,0.00,weatherlink.com 1.10,2013-05-06 23:20:00,
2013-05-06 16:35:00,85.0,49.0,29.77,NW,307,0.0,8.0,29,0.00,,,0.00,weatherlink.com 1.10,2013-05-06 23:35:00,
2013-05-06 16:50:00,84.1,52.0,29.77,WNW,302,8.0,10.0,33,0.00,,,0.00,weatherlink.com 1.10,2013-05-06 23:50:00,
2013-05-06 17:05:00,83.6,53.0,29.77,WNW,303,2.0,11.0,35,0.00,,,0.00,weatherlink.com 1.10,2013-05-07 00:05:00,
2013-05-06 17:20:00,82.9,54.0,29.77,WNW,296,0.0,10.0,37,0.00,,,0.00,weatherlink.com 1.10,2013-05-07 00:20:00,
2013-05-06 17:35:00,81.9,53.0,29.77,SW,236,7.0,10.0,37,0.00,,,0.00,weatherlink.com 1.10,2013-05-07 00:35:00,
2013-05-06 17:50:00,80.6,53.0,29.77,WNW,300,7.0,11.0,39,0.00,,,0.00,weatherlink.com 1.10,2013-05-07 00:50:00,
2013-05-06 18:05:00,79.5,53.0,29.77,WNW,289,1.0,10.0,40,0.00,,,0.00,weatherlink.com 1.10,2013-05-07 01:05:00,
2013-05-06 18:20:00,78.9,53.0,29.77,NW,319,2.0,10.0,41,0.00,,,0.00,weatherlink.com 1.10,2013-05-07 01:20:00,
2013-05-06 18:35:00,77.7,53.0,29.77,WNW,295,4.0,8.0,43,0.00,,,0.00,weatherlink.com 1.10,2013-05-07 01:35:00,
2013-05-06 18:50:00,76.3,53.0,29.77,West,262,3.0,6.0,44,0.00,,,0.00,weatherlink.com 1.10,2013-05-07 01:50:00,
2013-05-06 19:05:00,75.0,53.0,29.77,NW,312,4.0,8.0,46,0.00,,,0.00,weatherlink.com 1.10,2013-05-07 02:05:00,
2013-05-06 19:20:00,74.0,53.0,29.77,WNW,300,0.0,7.0,48,0.00,,,0.00,weatherlink.com 1.10,2013-05-07 02:20:00,
2013-05-06 19:35:00,73.6,53.0,29.78,East,100,0.0,2.0,49,0.00,,,0.00,weatherlink.com 1.10,2013-05-07 02:35:00,
2013-05-06 19:50:00,73.0,53.0,29.78,SW,235,0.0,0.0,50,0.00,,,0.00,weatherlink.com 1.10,2013-05-07 02:50:00,
2013-05-06 20:05:00,70.2,53.0,29.79,North,358,0.0,2.0,54,0.00,,,0.00,weatherlink.com 1.10,2013-05-07 03:05:00,
2013-05-06 20:20:00,67.2,52.0,29.79,SE,127,0.0,0.0,58,0.00,,,0.00,weatherlink.com 1.10,2013-05-07 03:20:00,
2013-05-06 20:35:00,65.0,51.0,29.80,East,79,0.0,0.0,61,0.00,,,0.00,weatherlink.com 1.10,2013-05-07 03:35:00,
2013-05-06 20:50:00,63.4,50.0,29.81,NW,305,0.0,0.0,63,0.00,,,0.00,weatherlink.com 1.10,2013-05-07 03:50:00,
2013-05-06 21:05:00,61.2,50.0,29.81,WNW,303,0.0,0.0,67,0.00,,,0.00,weatherlink.com 1.10,2013-05-07 04:05:00,
2013-05-06 21:20:00,59.3,50.0,29.82,NW,304,0.0,0.0,72,0.00,,,0.00,weatherlink.com 1.10,2013-05-07 04:20:00,
2013-05-06 21:35:00,57.2,50.0,29.82,NW,304,0.0,0.0,76,0.00,,,0.00,weatherlink.com 1.10,2013-05-07 04:35:00,
2013-05-06 21:50:00,55.5,49.0,29.83,NW,304,0.0,0.0,80,0.00,,,0.00,weatherlink.com 1.10,2013-05-07 04:50:00,
2013-05-06 22:05:00,54.4,49.0,29.83,NW,304,0.0,0.0,82,0.00,,,0.00,weatherlink.com 1.10,2013-05-07 05:05:00,
2013-05-06 22:20:00,53.3,49.0,29.83,NW,304,0.0,0.0,85,0.00,,,0.00,weatherlink.com 1.10,2013-05-07 05:20:00,
2013-05-06 22:35:00,52.5,49.0,29.84,NW,304,0.0,0.0,87,0.00,,,0.00,weatherlink.com 1.10,2013-05-07 05:35:00,
2013-05-06 22:50:00,51.8,48.0,29.84,NW,304,0.0,0.0,88,0.00,,,0.00,weatherlink.com 1.10,2013-05-07 05:50:00,
2013-05-06 23:05:00,51.3,49.0,29.85,NW,307,0.0,0.0,90,0.00,,,0.00,weatherlink.com 1.10,2013-05-07 06:05:00,
2013-05-06 23:20:00,50.6,48.0,29.85,NW,308,0.0,0.0,90,0.00,,,0.00,weatherlink.com 1.10,2013-05-07 06:20:00,
2013-05-06 23:35:00,50.0,48.0,29.86,NW,307,0.0,0.0,91,0.00,,,0.00,weatherlink.com 1.10,2013-05-07 06:35:00,
2013-05-06 23:50:00,49.5,47.0,29.86,NW,308,0.0,0.0,92,0.00,,,0.00,weatherlink.com 1.10,2013-05-07 06:50:00,